Location: Colossi of Memnon
(25.7167°N, 32.6167°E)
Time: 05:39:49
(UTC+00:00)

SeaSat 1 - Pass Details

Date: 05 March 2021
Orbit: 744 x 747 km, 108.0° (Epoch: 17 April)

Event Time Altitude Azimuth Distance (km) Brightness Sun altitude
Rises 02:42:39 0° 137° (SE) 3,169 6.3 -20.2°
Reaches altitude 10° 02:45:02 10° 129° (SE) 2,248 5.6 -19.7°
Maximum altitude 02:49:31 37° 63° (ENE) 1,135 3.9 -18.7°
Drops below altitude 10° 02:54:01 10° 356° (N) 2,258 4.9 -17.7°
Sets 02:56:25 0° 349° (NNW) 3,184 5.6 -17.1°
